Language: 


Des rapports , des résumés tant et plus, au choix de chacun....


Données statistiques de la station
Quotidien Rapport Janvier 5, 2018 Unités:  Anglais    Métrique   les deux
« Précédent Jour
Suivant Jour »
Quotidien Hebdomadaire Mensuel Annuel Actuel
  Haut: Bas: Moyen:
Température: TemperatureC °F 5.8 °F 8.2 °F
Pt de rosée: DewpointC °F 6.0 °F 7.4 °F
Humidité: Humidity % 82 % 92 %
Vitesse du vent: WindSpeedKMH mph 0.0 mph 13.1 mph
Rafales: WindSpeedGustKMH mph - -
Vent:- - SW
Pression: PressurehPa in 994.1 in -
Précipitation: 3.6 in    
Historical Graphs
 
 
Données statistiques pour Janvier 5, 2018
Heure Température Point de rosée Pression Vent Vitesse du vent Refales Humidité Pluie (taux horaire)
TemperatureC °F DewpointC °F PressurehPa in Calm     Humidity % HourlyPrecipMM in
00:01 8.5 °F 6.0 °F 996.8 in SW 9.0 mph 17.7 mph 83 % 0.0 in
00:06 8.5 °F 6.0 °F 996.8 in WSW 17.7 mph 17.7 mph 83 % 0.0 in
00:08 8.5 °F 6.0 °F 996.8 in WSW 9.0 mph 17.7 mph 84 % 0.0 in
00:14 8.6 °F 7.0 °F 996.8 in SW 11.9 mph 17.7 mph 85 % 0.0 in
00:19 8.6 °F 7.0 °F 996.8 in WSW 13.0 mph 16.9 mph 85 % 0.0 in
00:22 8.6 °F 7.0 °F 996.8 in SW 14.3 mph 16.9 mph 86 % 0.0 in
00:27 8.7 °F 7.0 °F 996.2 in WSW 14.0 mph 17.7 mph 87 % 0.0 in
00:30 8.7 °F 7.0 °F 996.2 in WSW 10.5 mph 17.7 mph 87 % 0.0 in
00:35 8.7 °F 7.0 °F 996.2 in WSW 11.9 mph 20.6 mph 88 % 0.0 in
00:37 8.8 °F 8.0 °F 996.2 in WSW 10.5 mph 20.6 mph 89 % 0.0 in
00:42 8.8 °F 8.0 °F 996.2 in SSW 9.0 mph 16.6 mph 89 % 0.0 in
00:45 8.8 °F 8.0 °F 996.2 in SW 12.2 mph 16.6 mph 89 % 0.0 in
00:51 8.8 °F 8.0 °F 996.2 in WSW 11.9 mph 17.7 mph 89 % 0.0 in
00:53 8.8 °F 8.0 °F 996.2 in SSW 15.4 mph 17.7 mph 89 % 0.0 in
00:58 8.8 °F 8.0 °F 996.2 in WSW 10.8 mph 17.7 mph 89 % 0.0 in
01:03 8.8 °F 8.0 °F 996.2 in WSW 10.1 mph 20.1 mph 89 % 0.0 in
01:08 8.7 °F 7.0 °F 996.2 in WSW 16.6 mph 20.1 mph 90 % 0.0 in
01:11 8.6 °F 7.0 °F 996.2 in SW 9.7 mph 20.1 mph 90 % 0.0 in
01:16 8.5 °F 8.0 °F 996.2 in SSW 13.7 mph 19.8 mph 91 % 0.3 in
01:21 8.4 °F 7.0 °F 996.2 in SSW 10.1 mph 19.8 mph 92 % 0.3 in
01:24 8.3 °F 7.0 °F 996.2 in SSW 19.5 mph 19.8 mph 92 % 0.5 in
01:29 8.2 °F 7.0 °F 995.1 in SSW 15.1 mph 19.8 mph 93 % 0.8 in
01:34 8.1 °F 7.0 °F 995.1 in SW 6.9 mph 19.8 mph 94 % 1.3 in
01:35 8.1 °F 7.0 °F 995.1 in WSW 11.6 mph 19.8 mph 94 % 1.3 in
01:39 8.0 °F 7.0 °F 995.1 in SW 13.7 mph 16.6 mph 94 % 1.5 in
01:44 7.9 °F 7.0 °F 995.1 in SSW 9.7 mph 13.7 mph 95 % 1.8 in
01:47 7.9 °F 8.0 °F 995.1 in SSW 6.1 mph 13.7 mph 96 % 1.8 in
01:52 7.8 °F 7.0 °F 995.1 in SW 8.7 mph 12.6 mph 96 % 2.3 in
01:53 7.8 °F 7.0 °F 995.1 in SSW 13.7 mph 13.7 mph 96 % 2.3 in
01:58 7.8 °F 7.0 °F 995.1 in WSW 9.0 mph 15.1 mph 97 % 2.3 in
02:04 7.8 °F 7.0 °F 995.1 in SSW 13.7 mph 16.3 mph 97 % 2.3 in
02:09 7.8 °F 8.0 °F 995.1 in WSW 16.6 mph 18.0 mph 98 % 2.3 in
02:11 7.9 °F 8.0 °F 994.1 in SW 19.1 mph 19.5 mph 98 % 2.3 in
02:16 7.9 °F 8.0 °F 994.1 in SW 13.7 mph 23.3 mph 98 % 1.8 in
02:22 8.0 °F 8.0 °F 994.1 in SW 16.6 mph 23.3 mph 98 % 1.5 in
02:26 8.1 °F 8.0 °F 995.1 in WSW 14.0 mph 20.6 mph 98 % 1.5 in
02:30 8.1 °F 8.0 °F 995.1 in WSW 19.8 mph 20.6 mph 98 % 1.3 in
02:35 8.3 °F 9.0 °F 995.1 in SW 21.2 mph 21.2 mph 98 % 0.8 in
02:38 8.4 °F 9.0 °F 995.1 in SW 20.6 mph 27.4 mph 98 % 0.8 in
02:43 8.5 °F 9.0 °F 995.1 in WSW 17.2 mph 27.7 mph 98 % 0.3 in
02:44 8.5 °F 9.0 °F 995.1 in SW 20.6 mph 27.7 mph 98 % 0.3 in
02:47 8.6 °F 9.0 °F 995.1 in WSW 25.9 mph 29.1 mph 98 % 0.3 in
02:51 8.7 °F 9.0 °F 995.1 in WSW 21.2 mph 36.7 mph 98 % 0.3 in
02:52 8.8 °F 9.0 °F 995.1 in WSW 31.7 mph 36.7 mph 98 % 0.3 in
02:58 8.9 °F 9.0 °F 994.1 in West 31.7 mph 39.6 mph 98 % 0.3 in
03:01 9.0 °F 9.0 °F 994.1 in WSW 24.5 mph 39.6 mph 98 % 0.3 in
03:06 9.1 °F 9.0 °F 994.1 in West 36.0 mph 39.6 mph 98 % 0.3 in
03:11 9.2 °F 9.0 °F 994.1 in WSW 20.6 mph 36.7 mph 98 % 0.3 in
03:16 9.2 °F 9.0 °F 994.1 in WSW 25.9 mph 36.0 mph 97 % 0.3 in
03:21 9.4 °F 9.0 °F 994.1 in WSW 30.2 mph 36.0 mph 97 % 0.3 in
03:26 9.4 °F 9.0 °F 995.1 in West 17.7 mph 36.0 mph 96 % 0.3 in
03:30 9.4 °F 9.0 °F 995.1 in West 21.2 mph 32.3 mph 96 % 0.3 in
03:35 9.4 °F 9.0 °F 995.1 in WSW 17.2 mph 28.0 mph 96 % 0.3 in
03:39 9.4 °F 9.0 °F 995.1 in West 20.1 mph 28.0 mph 96 % 0.3 in
03:44 9.5 °F 9.0 °F 995.1 in WSW 19.1 mph 25.6 mph 96 % 0.3 in
03:46 9.5 °F 9.0 °F 995.1 in WSW 15.8 mph 25.6 mph 96 % 0.3 in
03:51 9.5 °F 9.0 °F 995.1 in WSW 24.8 mph 27.4 mph 96 % 0.0 in
03:53 9.5 °F 9.0 °F 995.1 in WSW 25.6 mph 27.4 mph 96 % 0.0 in
03:58 9.5 °F 9.0 °F 995.1 in WSW 19.5 mph 30.9 mph 95 % 0.0 in
04:02 9.5 °F 9.0 °F 995.1 in WSW 21.2 mph 30.9 mph 95 % 0.0 in
04:07 9.5 °F 9.0 °F 995.1 in West 26.7 mph 32.0 mph 94 % 0.0 in
04:11 9.5 °F 9.0 °F 995.1 in WSW 17.7 mph 32.0 mph 93 % 0.0 in
04:14 9.5 °F 9.0 °F 995.1 in WSW 17.7 mph 32.0 mph 93 % 0.0 in
04:17 9.5 °F 9.0 °F 995.1 in WSW 21.2 mph 33.5 mph 91 % 0.0 in
04:22 9.5 °F 8.0 °F 995.1 in WSW 22.7 mph 34.6 mph 89 % 0.0 in
04:24 9.6 °F 8.0 °F 995.1 in West 18.3 mph 35.6 mph 87 % 0.0 in
04:29 9.6 °F 8.0 °F 995.1 in West 27.7 mph 35.6 mph 85 % 0.0 in
04:30 9.6 °F 8.0 °F 995.1 in West 16.9 mph 35.6 mph 85 % 0.0 in
04:35 9.5 °F 7.0 °F 995.1 in West 16.6 mph 35.2 mph 84 % 0.0 in
04:36 9.5 °F 7.0 °F 995.1 in West 26.2 mph 29.1 mph 84 % 0.0 in
04:41 9.4 °F 7.0 °F 995.1 in WSW 20.6 mph 29.1 mph 82 % 0.0 in
04:46 9.4 °F 7.0 °F 995.1 in West 25.3 mph 32.0 mph 82 % 0.0 in
04:47 9.4 °F 7.0 °F 995.1 in West 12.2 mph 32.0 mph 82 % 0.0 in
04:52 9.3 °F 7.0 °F 995.1 in West 24.5 mph 32.0 mph 82 % 0.0 in
04:53 9.3 °F 7.0 °F 995.1 in West 13.7 mph 31.4 mph 82 % 0.0 in
04:59 9.3 °F 7.0 °F 995.1 in WSW 13.0 mph 28.5 mph 82 % 0.0 in
05:04 9.2 °F 7.0 °F 995.1 in West 20.6 mph 26.2 mph 83 % 0.0 in
05:09 9.2 °F 7.0 °F 995.1 in West 20.1 mph 26.2 mph 83 % 0.0 in
05:10 9.2 °F 7.0 °F 995.1 in WSW 11.1 mph 26.2 mph 83 % 0.0 in
05:15 9.2 °F 7.0 °F 995.1 in West 19.8 mph 23.8 mph 84 % 0.0 in
05:20 9.3 °F 7.0 °F 995.1 in SW 20.1 mph 23.8 mph 84 % 0.0 in
05:23 9.3 °F 7.0 °F 995.1 in WNW 12.2 mph 23.8 mph 84 % 0.0 in
05:28 9.3 °F 7.0 °F 994.1 in West 12.2 mph 20.6 mph 85 % 0.0 in
05:33 9.2 °F 7.0 °F 994.1 in WSW 14.0 mph 19.5 mph 85 % 0.0 in
05:36 9.1 °F 7.0 °F 994.1 in WSW 14.0 mph 16.3 mph 85 % 0.0 in
05:41 9.1 °F 7.0 °F 994.1 in West 17.2 mph 17.2 mph 86 % 0.0 in
05:46 9.1 °F 7.0 °F 994.1 in West 13.7 mph 19.8 mph 86 % 0.0 in
05:47 9.1 °F 7.0 °F 994.1 in West 12.2 mph 19.8 mph 86 % 0.0 in
05:53 9.1 °F 7.0 °F 994.1 in West 9.3 mph 19.8 mph 86 % 0.0 in
05:55 9.0 °F 7.0 °F 994.1 in WSW 12.6 mph 16.3 mph 87 % 0.0 in
06:00 9.0 °F 7.0 °F 995.1 in WSW 13.0 mph 19.8 mph 87 % 0.0 in
06:02 8.9 °F 7.0 °F 995.1 in WSW 10.1 mph 19.8 mph 88 % 0.0 in
06:03 8.9 °F 7.0 °F 995.1 in WSW 10.5 mph 19.8 mph 88 % 0.0 in
06:08 8.9 °F 8.0 °F 995.1 in WSW 9.3 mph 19.8 mph 89 % 0.0 in
06:14 8.8 °F 8.0 °F 995.1 in WSW 10.5 mph 15.4 mph 89 % 0.0 in
06:16 8.8 °F 8.0 °F 995.1 in WSW 11.9 mph 15.4 mph 90 % 0.0 in
06:21 8.8 °F 8.0 °F 995.1 in West 10.5 mph 15.1 mph 90 % 0.0 in
06:27 8.8 °F 8.0 °F 995.1 in WSW 12.2 mph 13.7 mph 91 % 0.0 in
06:31 8.8 °F 8.0 °F 995.1 in WSW 10.5 mph 13.7 mph 91 % 0.0 in
06:36 8.8 °F 8.0 °F 995.1 in WSW 10.1 mph 13.7 mph 92 % 0.0 in
06:39 8.8 °F 8.0 °F 995.1 in WSW 8.7 mph 13.7 mph 92 % 0.0 in
06:44 8.7 °F 8.0 °F 995.1 in WSW 8.7 mph 16.6 mph 92 % 0.0 in
06:49 8.7 °F 8.0 °F 995.1 in WSW 16.6 mph 20.9 mph 93 % 0.0 in
06:54 8.7 °F 8.0 °F 995.1 in WSW 12.6 mph 24.5 mph 94 % 0.0 in
06:59 8.6 °F 8.0 °F 994.1 in WSW 13.0 mph 24.5 mph 94 % 0.0 in
07:03 8.6 °F 8.0 °F 994.1 in WSW 12.2 mph 17.7 mph 94 % 0.0 in
07:08 8.5 °F 8.0 °F 994.1 in WSW 11.9 mph 17.7 mph 94 % 0.0 in
07:10 8.5 °F 8.0 °F 994.1 in WSW 10.1 mph 17.7 mph 94 % 0.0 in
07:18 8.3 °F 8.0 °F 995.1 in WSW 9.3 mph 14.0 mph 94 % 0.0 in
07:19 8.3 °F 8.0 °F 995.1 in SSW 9.7 mph 12.6 mph 94 % 0.0 in
07:24 8.3 °F 8.0 °F 995.1 in SW 7.6 mph 10.1 mph 94 % 0.0 in
07:27 8.3 °F 8.0 °F 995.1 in SW 9.0 mph 10.1 mph 94 % 0.0 in
07:32 8.3 °F 8.0 °F 995.1 in Calm   9.3 mph 94 % 0.0 in
07:35 8.3 °F 8.0 °F 995.1 in SW 5.5 mph 9.0 mph 94 % 0.0 in
07:40 8.2 °F 7.0 °F 995.1 in SW 9.3 mph 9.3 mph 94 % 0.0 in
07:46 8.3 °F 8.0 °F 995.1 in SW 9.3 mph 10.5 mph 95 % 0.0 in
07:51 8.3 °F 8.0 °F 995.1 in WSW 7.9 mph 10.5 mph 95 % 0.0 in
07:56 8.1 °F 8.0 °F 995.1 in SW 6.4 mph 10.1 mph 95 % 0.0 in
07:57 8.1 °F 8.0 °F 995.1 in SW 6.4 mph 10.1 mph 95 % 0.0 in
08:02 8.1 °F 8.0 °F 995.1 in SSW 7.9 mph 10.1 mph 95 % 0.0 in
08:04 8.1 °F 8.0 °F 995.1 in Calm   10.1 mph 95 % 0.0 in
08:09 8.1 °F 8.0 °F 995.1 in SSW 9.3 mph 10.1 mph 95 % 0.0 in
08:14 8.1 °F 8.0 °F 995.1 in SW 9.3 mph 12.6 mph 95 % 0.0 in
08:16 8.1 °F 8.0 °F 995.1 in SW 6.1 mph 12.6 mph 95 % 0.0 in
08:21 8.1 °F 8.0 °F 995.1 in SW 7.9 mph 12.6 mph 95 % 0.0 in
08:23 8.1 °F 8.0 °F 995.1 in WSW 10.1 mph 12.6 mph 95 % 0.0 in
08:24 8.1 °F 8.0 °F 995.1 in SW 8.7 mph 10.8 mph 95 % 0.0 in
08:30 8.1 °F 8.0 °F 995.1 in SW 7.2 mph 13.0 mph 95 % 0.0 in
08:35 8.2 °F 8.0 °F 995.1 in SW 8.7 mph 13.7 mph 95 % 0.0 in
08:36 8.2 °F 8.0 °F 995.1 in SSW 6.9 mph 13.7 mph 95 % 0.0 in
08:37 8.2 °F 8.0 °F 995.1 in SW 7.9 mph 13.7 mph 95 % 0.0 in
08:42 8.2 °F 8.0 °F 996.2 in SW 9.7 mph 16.3 mph 96 % 0.0 in
08:47 8.2 °F 8.0 °F 996.2 in WSW 9.7 mph 16.9 mph 96 % 0.0 in
08:49 8.2 °F 8.0 °F 996.2 in SW 11.9 mph 16.9 mph 96 % 0.0 in
08:54 8.3 °F 8.0 °F 996.2 in SSW 9.7 mph 16.9 mph 96 % 0.0 in
08:59 8.3 °F 8.0 °F 996.2 in SSW 5.8 mph 13.0 mph 96 % 0.0 in
09:05 8.3 °F 8.0 °F 996.2 in South 10.1 mph 11.9 mph 96 % 0.0 in
09:10 8.3 °F 8.0 °F 996.2 in SW 11.9 mph 11.9 mph 97 % 0.0 in
09:15 8.4 °F 8.0 °F 996.2 in SSW 9.3 mph 12.2 mph 97 % 0.0 in
09:17 8.4 °F 8.0 °F 996.2 in WSW 9.7 mph 12.6 mph 97 % 0.0 in
09:22 8.4 °F 8.0 °F 996.2 in SW 9.0 mph 16.3 mph 97 % 0.0 in
09:28 8.4 °F 8.0 °F 996.2 in SSW 7.9 mph 16.3 mph 97 % 0.0 in
09:34 8.5 °F 9.0 °F 996.2 in SW 14.0 mph 14.0 mph 97 % 0.0 in
09:39 8.5 °F 9.0 °F 996.2 in WSW 13.7 mph 14.0 mph 96 % 0.0 in
09:42 8.5 °F 9.0 °F 996.2 in SW 7.9 mph 15.1 mph 96 % 0.0 in
09:47 8.5 °F 9.0 °F 996.2 in SSW 7.9 mph 15.1 mph 96 % 0.0 in
09:52 8.5 °F 9.0 °F 996.2 in SSW 8.7 mph 13.7 mph 96 % 0.0 in
09:54 8.5 °F 9.0 °F 996.2 in SSW 9.3 mph 13.7 mph 96 % 0.0 in
09:59 8.5 °F 9.0 °F 996.2 in South 8.7 mph 11.6 mph 96 % 0.0 in
10:02 8.5 °F 9.0 °F 996.2 in SSW 7.9 mph 13.0 mph 96 % 0.0 in
10:07 8.6 °F 9.0 °F 996.2 in SSW 10.1 mph 13.0 mph 96 % 0.0 in
10:09 8.6 °F 9.0 °F 996.2 in SW 7.2 mph 13.0 mph 96 % 0.0 in
10:14 8.6 °F 9.0 °F 996.2 in South 5.8 mph 13.7 mph 96 % 0.0 in
10:15 8.6 °F 9.0 °F 996.2 in SSW 6.9 mph 13.7 mph 96 % 0.0 in
10:20 8.7 °F 9.0 °F 996.2 in SSW 6.4 mph 11.9 mph 96 % 0.0 in
10:25 8.7 °F 9.0 °F 996.2 in SSW 1.8 mph 9.7 mph 96 % 0.0 in
10:26 8.7 °F 9.0 °F 995.1 in SSW 6.1 mph 9.7 mph 96 % 0.0 in
10:33 8.8 °F 9.0 °F 995.1 in SW 5.5 mph 13.7 mph 95 % 0.0 in
10:38 8.8 °F 9.0 °F 995.1 in SSW 6.1 mph 13.7 mph 95 % 0.0 in
10:39 8.8 °F 9.0 °F 995.1 in SSW 7.9 mph 13.7 mph 95 % 0.0 in
10:44 8.8 °F 9.0 °F 996.2 in SW 4.7 mph 11.9 mph 95 % 0.0 in
10:46 8.9 °F 9.0 °F 996.2 in SSW 7.9 mph 11.9 mph 95 % 0.0 in
10:51 8.9 °F 9.0 °F 996.2 in SSW 7.6 mph 11.1 mph 95 % 0.0 in
10:56 8.9 °F 9.0 °F 995.1 in WSW 10.1 mph 16.6 mph 95 % 0.0 in
11:02 9.0 °F 8.0 °F 995.1 in SW 13.0 mph 16.9 mph 94 % 0.0 in
11:07 9.0 °F 8.0 °F 995.1 in SW 10.5 mph 16.9 mph 94 % 0.0 in
11:11 9.1 °F 8.0 °F 995.1 in SW 11.9 mph 16.6 mph 94 % 0.0 in
11:16 9.1 °F 8.0 °F 996.2 in SSW 17.2 mph 17.2 mph 94 % 0.0 in
11:20 9.2 °F 9.0 °F 996.2 in SW 11.6 mph 17.2 mph 93 % 0.0 in
11:29 9.3 °F 9.0 °F 996.2 in SSW 9.0 mph 19.8 mph 93 % 0.0 in
11:38 9.3 °F 8.0 °F 996.2 in SW 9.3 mph 13.7 mph 92 % 0.0 in
11:43 9.4 °F 8.0 °F 996.2 in SSW 13.7 mph 15.8 mph 92 % 0.0 in
11:45 9.4 °F 8.0 °F 996.2 in SSW 10.1 mph 15.8 mph 92 % 0.0 in
11:50 9.4 °F 8.0 °F 996.2 in SSW 16.6 mph 17.7 mph 91 % 0.0 in
11:55 9.5 °F 9.0 °F 996.2 in SSW 9.7 mph 17.7 mph 91 % 0.0 in
12:00 9.6 °F 9.0 °F 995.1 in SSW 12.6 mph 17.2 mph 91 % 0.0 in
12:04 9.6 °F 9.0 °F 995.1 in SW 13.7 mph 17.2 mph 91 % 0.0 in
12:09 9.6 °F 8.0 °F 995.1 in SW 11.9 mph 20.9 mph 90 % 0.0 in
12:11 9.6 °F 8.0 °F 995.1 in SW 13.7 mph 20.9 mph 90 % 0.0 in
12:16 9.7 °F 8.0 °F 995.1 in SW 14.0 mph 20.9 mph 90 % 0.0 in
12:17 9.7 °F 8.0 °F 995.1 in SW 9.7 mph 20.9 mph 90 % 0.0 in
12:22 9.8 °F 8.0 °F 995.1 in SSW 8.7 mph 19.1 mph 89 % 0.0 in
12:27 9.9 °F 9.0 °F 995.1 in SSW 10.5 mph 19.1 mph 89 % 0.0 in
12:28 9.9 °F 9.0 °F 995.1 in SSW 11.9 mph 19.1 mph 89 % 0.0 in
12:33 9.9 °F 9.0 °F 995.1 in SSW 13.7 mph 18.3 mph 89 % 0.0 in
12:38 9.9 °F 8.0 °F 995.1 in SSW 13.0 mph 21.2 mph 88 % 0.0 in
12:43 9.9 °F 8.0 °F 995.1 in SW 12.6 mph 21.2 mph 88 % 0.0 in
12:48 9.9 °F 8.0 °F 995.1 in SSW 16.9 mph 19.8 mph 88 % 0.0 in
12:53 9.9 °F 8.0 °F 995.1 in WSW 24.5 mph 24.5 mph 87 % 0.0 in
12:58 9.9 °F 8.0 °F 995.1 in SSW 9.3 mph 24.5 mph 87 % 0.0 in
13:01 9.9 °F 8.0 °F 995.1 in SW 19.5 mph 24.5 mph 87 % 0.0 in
13:07 9.9 °F 8.0 °F 995.1 in SW 17.7 mph 21.6 mph 87 % 0.0 in
13:12 10.0 °F 8.0 °F 994.1 in SSW 11.9 mph 21.2 mph 87 % 0.0 in
13:17 10.0 °F 8.0 °F 994.1 in SSW 17.2 mph 20.6 mph 86 % 0.0 in
13:22 10.0 °F 8.0 °F 994.1 in WSW 16.9 mph 20.6 mph 86 % 0.0 in
13:28 9.9 °F 8.0 °F 995.1 in WSW 12.2 mph 21.2 mph 86 % 0.0 in
13:33 9.9 °F 8.0 °F 995.1 in SW 19.8 mph 19.8 mph 87 % 0.0 in
13:38 9.9 °F 8.0 °F 995.1 in WSW 16.6 mph 20.9 mph 87 % 0.0 in
13:39 9.9 °F 8.0 °F 995.1 in SSW 11.6 mph 20.9 mph 86 % 0.0 in
13:44 10.0 °F 8.0 °F 995.1 in SW 12.6 mph 23.8 mph 86 % 0.0 in
13:49 10.0 °F 8.0 °F 995.1 in SW 19.8 mph 23.8 mph 85 % 0.0 in
13:54 10.0 °F 8.0 °F 995.1 in SW 16.3 mph 20.6 mph 85 % 0.0 in
13:59 10.0 °F 8.0 °F 995.1 in SW 14.0 mph 20.6 mph 85 % 0.0 in
14:04 10.0 °F 8.0 °F 995.1 in SW 13.7 mph 25.6 mph 84 % 0.0 in
14:09 10.0 °F 8.0 °F 995.1 in WSW 13.0 mph 25.6 mph 84 % 0.0 in
14:14 10.0 °F 8.0 °F 995.1 in WSW 13.7 mph 21.2 mph 84 % 0.0 in
14:19 9.9 °F 8.0 °F 995.1 in WSW 17.7 mph 21.9 mph 84 % 0.0 in
14:23 9.9 °F 8.0 °F 995.1 in SSW 19.8 mph 23.3 mph 85 % 0.0 in
14:28 9.8 °F 8.0 °F 995.1 in SW 20.9 mph 24.5 mph 85 % 0.0 in
14:33 9.6 °F 8.0 °F 995.1 in WSW 25.3 mph 30.6 mph 86 % 0.0 in
14:38 9.5 °F 8.0 °F 995.1 in WSW 20.9 mph 38.1 mph 86 % 0.0 in
14:42 9.4 °F 8.0 °F 995.1 in SW 21.2 mph 38.1 mph 87 % 0.0 in
14:47 9.3 °F 8.0 °F 995.1 in WSW 16.3 mph 32.0 mph 88 % 0.0 in
14:50 9.2 °F 8.0 °F 995.1 in WSW 15.8 mph 28.0 mph 88 % 0.0 in
14:55 9.2 °F 8.0 °F 995.1 in WSW 17.2 mph 22.7 mph 89 % 0.0 in
14:57 9.2 °F 8.0 °F 995.1 in SW 14.0 mph 22.7 mph 89 % 0.0 in
15:02 9.2 °F 8.0 °F 995.1 in SW 15.8 mph 21.2 mph 90 % 0.0 in
15:07 9.1 °F 8.0 °F 995.1 in WSW 15.4 mph 21.2 mph 90 % 0.0 in
15:12 9.1 °F 8.0 °F 995.1 in SSW 12.2 mph 24.5 mph 90 % 0.0 in
15:21 9.0 °F 8.0 °F 995.1 in SW 12.2 mph 23.8 mph 91 % 0.0 in
15:24 9.0 °F 8.0 °F 995.1 in SW 15.4 mph 17.7 mph 91 % 0.0 in
15:29 9.0 °F 8.0 °F 995.1 in WSW 13.7 mph 24.5 mph 91 % 0.0 in
15:32 9.0 °F 8.0 °F 995.1 in WSW 15.4 mph 24.5 mph 91 % 0.0 in
15:34 9.0 °F 8.0 °F 995.1 in WSW 17.2 mph 24.5 mph 91 % 0.0 in
15:39 9.0 °F 8.0 °F 995.1 in SW 13.0 mph 26.7 mph 91 % 0.0 in
15:44 8.9 °F 8.0 °F 995.1 in WSW 12.2 mph 26.7 mph 91 % 0.0 in
15:50 8.9 °F 8.0 °F 995.1 in WSW 11.6 mph 23.8 mph 91 % 0.0 in
15:54 8.9 °F 8.0 °F 995.1 in SW 12.2 mph 23.8 mph 90 % 0.0 in
15:59 8.9 °F 8.0 °F 995.1 in WSW 13.0 mph 21.2 mph 90 % 0.0 in
16:05 8.9 °F 8.0 °F 995.1 in SSW 16.9 mph 16.9 mph 90 % 0.0 in
16:10 8.9 °F 8.0 °F 995.1 in WSW 12.6 mph 20.1 mph 90 % 0.0 in
16:15 8.7 °F 7.0 °F 995.1 in SW 13.0 mph 20.1 mph 89 % 0.0 in
16:20 8.5 °F 7.0 °F 995.1 in WSW 12.2 mph 16.9 mph 89 % 0.0 in
16:25 8.4 °F 7.0 °F 995.1 in WSW 12.6 mph 17.2 mph 89 % 0.0 in
16:30 8.3 °F 7.0 °F 996.2 in SW 12.2 mph 17.2 mph 89 % 0.0 in
16:32 8.2 °F 7.0 °F 996.2 in SW 14.0 mph 17.2 mph 89 % 0.0 in
16:38 8.1 °F 7.0 °F 996.2 in SW 10.5 mph 16.3 mph 90 % 0.0 in
16:43 8.0 °F 7.0 °F 996.2 in SW 8.7 mph 20.6 mph 90 % 0.0 in
16:48 7.9 °F 7.0 °F 996.2 in WSW 9.3 mph 20.6 mph 91 % 0.0 in
16:51 7.9 °F 7.0 °F 996.2 in WSW 13.7 mph 14.8 mph 91 % 0.0 in
16:53 7.8 °F 6.0 °F 996.2 in WSW 12.2 mph 14.8 mph 91 % 0.0 in
16:58 7.8 °F 6.0 °F 996.8 in WSW 12.2 mph 15.4 mph 92 % 0.0 in
17:03 7.9 °F 7.0 °F 996.8 in WSW 13.0 mph 16.9 mph 93 % 0.0 in
17:08 7.8 °F 7.0 °F 996.8 in WSW 11.6 mph 16.9 mph 93 % 0.0 in
17:10 7.8 °F 7.0 °F 996.8 in WSW 11.9 mph 16.3 mph 93 % 0.0 in
17:14 7.8 °F 7.0 °F 996.8 in SW 10.1 mph 16.3 mph 93 % 0.0 in
17:19 7.8 °F 7.0 °F 996.8 in WSW 11.9 mph 16.9 mph 93 % 0.0 in
17:24 7.9 °F 7.0 °F 996.8 in WSW 12.6 mph 16.9 mph 93 % 0.0 in
17:29 7.9 °F 7.0 °F 996.8 in West 11.6 mph 16.6 mph 93 % 0.3 in
17:30 7.9 °F 7.0 °F 996.8 in West 10.5 mph 14.8 mph 93 % 0.3 in
17:35 7.6 °F 7.0 °F 996.8 in WSW 16.9 mph 23.8 mph 93 % 0.5 in
17:38 7.4 °F 6.0 °F 996.8 in WSW 16.6 mph 23.8 mph 92 % 0.5 in
17:43 7.2 °F 6.0 °F 996.8 in WSW 20.9 mph 25.6 mph 92 % 0.8 in
17:44 7.2 °F 6.0 °F 996.8 in WSW 17.7 mph 25.6 mph 92 % 0.8 in
17:49 7.0 °F 6.0 °F 996.8 in WSW 18.0 mph 26.7 mph 93 % 0.8 in
17:51 7.0 °F 6.0 °F 996.8 in West 19.8 mph 26.7 mph 93 % 0.8 in
17:56 6.8 °F 6.0 °F 996.8 in WSW 20.6 mph 31.7 mph 95 % 0.8 in
17:59 6.8 °F 6.0 °F 996.8 in WSW 16.3 mph 31.7 mph 95 % 0.8 in
18:04 6.6 °F 6.0 °F 996.8 in WSW 11.9 mph 27.4 mph 95 % 0.8 in
18:06 6.6 °F 6.0 °F 996.8 in WSW 11.9 mph 23.3 mph 95 % 0.8 in
18:11 6.4 °F 6.0 °F 996.8 in WSW 16.3 mph 20.1 mph 95 % 0.8 in
18:14 6.4 °F 6.0 °F 996.8 in WSW 12.6 mph 20.1 mph 95 % 0.8 in
18:20 6.4 °F 6.0 °F 996.8 in WSW 12.2 mph 18.0 mph 95 % 0.8 in
18:30 6.2 °F 6.0 °F 996.8 in WSW 9.0 mph 19.5 mph 95 % 0.5 in
18:35 6.2 °F 6.0 °F 996.8 in WSW 17.7 mph 17.7 mph 95 % 0.3 in
18:40 6.3 °F 6.0 °F 996.8 in WSW 17.2 mph 21.9 mph 96 % 0.0 in
18:44 6.3 °F 6.0 °F 996.8 in WSW 17.2 mph 21.9 mph 96 % 0.0 in
18:49 6.4 °F 6.0 °F 996.8 in WSW 15.8 mph 21.9 mph 96 % 0.0 in
18:50 6.4 °F 6.0 °F 996.8 in SSW 12.6 mph 20.9 mph 96 % 0.0 in
18:55 6.4 °F 6.0 °F 996.8 in WSW 20.9 mph 20.9 mph 96 % 0.0 in
18:57 6.4 °F 6.0 °F 997.9 in WSW 16.3 mph 20.9 mph 96 % 0.0 in
19:02 6.4 °F 6.0 °F 997.9 in WSW 16.6 mph 20.9 mph 96 % 0.0 in
19:07 6.4 °F 6.0 °F 997.9 in SW 10.5 mph 19.5 mph 95 % 0.0 in
19:12 6.4 °F 6.0 °F 997.9 in SW 12.6 mph 17.2 mph 95 % 0.0 in
19:17 6.3 °F 6.0 °F 997.9 in SSW 12.2 mph 17.2 mph 95 % 0.0 in
19:22 6.3 °F 6.0 °F 997.9 in SW 12.2 mph 15.1 mph 95 % 0.0 in
19:27 6.3 °F 6.0 °F 997.9 in SW 12.6 mph 18.3 mph 95 % 0.0 in
19:32 6.3 °F 6.0 °F 997.9 in WSW 13.7 mph 19.8 mph 94 % 0.0 in
19:37 6.3 °F 6.0 °F 997.9 in SW 13.0 mph 19.8 mph 94 % 0.0 in
19:42 6.4 °F 6.0 °F 997.9 in WSW 16.3 mph 21.2 mph 94 % 0.0 in
19:43 6.4 °F 6.0 °F 997.9 in SW 16.3 mph 21.2 mph 94 % 0.0 in
19:48 6.4 °F 6.0 °F 997.9 in SW 20.1 mph 21.2 mph 94 % 0.0 in
19:58 6.4 °F 6.0 °F 997.9 in WSW 12.2 mph 20.6 mph 94 % 0.0 in
20:03 6.5 °F 6.0 °F 997.9 in SW 10.5 mph 20.6 mph 94 % 0.3 in
20:04 6.5 °F 6.0 °F 997.9 in SW 12.2 mph 20.6 mph 94 % 0.3 in
20:09 6.5 °F 6.0 °F 997.9 in SW 16.9 mph 21.2 mph 94 % 0.3 in
20:11 6.5 °F 6.0 °F 997.9 in SW 16.6 mph 21.2 mph 94 % 0.3 in
20:16 6.5 °F 6.0 °F 997.9 in SSW 12.6 mph 21.2 mph 94 % 0.3 in
20:20 6.5 °F 6.0 °F 997.9 in WSW 12.6 mph 20.9 mph 94 % 0.3 in
20:26 6.5 °F 6.0 °F 998.9 in SW 17.7 mph 17.7 mph 94 % 0.3 in
20:27 6.5 °F 6.0 °F 998.9 in SW 13.0 mph 17.7 mph 94 % 0.3 in
20:32 6.4 °F 6.0 °F 998.9 in SW 9.7 mph 17.7 mph 94 % 0.3 in
20:34 6.4 °F 6.0 °F 998.9 in SW 9.3 mph 17.7 mph 94 % 0.3 in
20:36 6.5 °F 6.0 °F 998.9 in SSW 11.6 mph 16.6 mph 95 % 0.3 in
20:41 6.5 °F 6.0 °F 998.9 in SSW 12.2 mph 16.9 mph 95 % 0.3 in
20:42 6.5 °F 6.0 °F 998.9 in SW 15.8 mph 16.9 mph 95 % 0.3 in
20:47 6.5 °F 6.0 °F 998.9 in SSW 12.6 mph 16.9 mph 95 % 0.3 in
20:52 6.5 °F 6.0 °F 998.9 in WSW 12.6 mph 14.3 mph 95 % 0.3 in
20:57 6.5 °F 6.0 °F 999.9 in SW 10.1 mph 16.9 mph 95 % 0.3 in
21:02 6.5 °F 6.0 °F 999.9 in SW 14.8 mph 16.9 mph 96 % 0.0 in
21:07 6.5 °F 6.0 °F 999.9 in SSW 12.6 mph 19.5 mph 96 % 0.0 in
21:11 6.5 °F 6.0 °F 999.9 in WSW 11.9 mph 19.5 mph 96 % 0.0 in
21:16 6.5 °F 6.0 °F 997.9 in SSW 10.5 mph 19.5 mph 96 % 0.0 in
21:21 6.5 °F 6.0 °F 997.9 in SW 9.7 mph 16.9 mph 96 % 0.0 in
21:25 6.4 °F 6.0 °F 997.9 in SW 9.7 mph 16.6 mph 96 % 0.0 in
21:30 6.4 °F 6.0 °F 998.9 in SSW 12.6 mph 16.3 mph 96 % 0.0 in
21:31 6.3 °F 6.0 °F 998.9 in SSW 7.9 mph 15.4 mph 96 % 0.0 in
21:35 6.3 °F 6.0 °F 998.9 in SSW 10.1 mph 15.4 mph 96 % 0.0 in
21:40 6.2 °F 6.0 °F 998.9 in SW 9.7 mph 13.0 mph 96 % 0.0 in
21:43 6.1 °F 6.0 °F 998.9 in Calm   13.0 mph 96 % 0.0 in
21:48 6.1 °F 6.0 °F 998.9 in SW 7.9 mph 13.0 mph 96 % 0.0 in
21:51 6.1 °F 6.0 °F 998.9 in SSW 7.6 mph 13.7 mph 96 % 0.0 in
21:58 6.1 °F 6.0 °F 998.9 in SSW 8.7 mph 14.0 mph 97 % 0.0 in
22:03 6.1 °F 6.0 °F 998.9 in SW 10.1 mph 14.0 mph 97 % 0.0 in
22:08 6.3 °F 6.0 °F 998.9 in SW 11.9 mph 16.9 mph 97 % 0.0 in
22:12 6.3 °F 6.0 °F 999.9 in WSW 8.7 mph 16.9 mph 97 % 0.0 in
22:13 6.3 °F 6.0 °F 999.9 in SW 9.3 mph 16.9 mph 97 % 0.0 in
22:18 6.3 °F 6.0 °F 999.9 in SW 9.3 mph 13.7 mph 97 % 0.0 in
22:21 6.4 °F 6.0 °F 999.9 in SW 12.2 mph 13.7 mph 97 % 0.0 in
22:26 6.4 °F 6.0 °F 999.9 in SSW 12.6 mph 12.6 mph 97 % 0.0 in
22:30 6.4 °F 6.0 °F 999.9 in WSW 9.0 mph 18.0 mph 97 % 0.0 in
22:35 6.4 °F 6.0 °F 999.9 in SSW 11.9 mph 18.0 mph 97 % 0.0 in
22:36 6.4 °F 6.0 °F 999.9 in SSW 9.7 mph 18.0 mph 97 % 0.0 in
22:41 6.4 °F 6.0 °F 1000.9 in SW 9.7 mph 15.4 mph 97 % 0.0 in
22:46 6.4 °F 6.0 °F 1000.9 in WSW 10.1 mph 14.0 mph 97 % 0.0 in
22:49 6.4 °F 6.0 °F 1000.9 in SW 6.4 mph 14.0 mph 97 % 0.0 in
22:54 6.4 °F 6.0 °F 1000.9 in SW 9.7 mph 12.6 mph 96 % 0.0 in
22:56 6.4 °F 6.0 °F 999.9 in SW 10.5 mph 12.6 mph 96 % 0.0 in
23:01 6.4 °F 6.0 °F 999.9 in SW 8.7 mph 12.6 mph 96 % 0.0 in
23:06 6.4 °F 6.0 °F 999.9 in SW 9.0 mph 13.7 mph 96 % 0.0 in
23:09 6.4 °F 6.0 °F 999.9 in WSW 8.7 mph 13.7 mph 96 % 0.0 in
23:14 6.4 °F 6.0 °F 1000.9 in SSW 12.6 mph 14.0 mph 96 % 0.0 in
23:17 6.4 °F 6.0 °F 1000.9 in SW 10.5 mph 14.0 mph 96 % 0.0 in
23:22 6.3 °F 6.0 °F 1000.9 in SSW 10.5 mph 14.0 mph 96 % 0.0 in
23:23 6.3 °F 6.0 °F 1000.9 in WSW 9.3 mph 14.0 mph 96 % 0.0 in
23:28 6.3 °F 6.0 °F 1000.9 in West 6.1 mph 15.4 mph 95 % 0.0 in
23:33 6.2 °F 6.0 °F 1000.9 in SSW 6.4 mph 15.4 mph 95 % 0.0 in
23:34 6.1 °F 6.0 °F 1000.9 in SSW 5.8 mph 15.4 mph 95 % 0.0 in
23:35 6.1 °F 6.0 °F 1000.9 in South 6.9 mph 10.1 mph 95 % 0.0 in
23:40 6.0 °F 6.0 °F 1000.9 in WSW 9.3 mph 13.7 mph 95 % 0.0 in
23:46 5.9 °F 6.0 °F 1000.9 in Calm   13.7 mph 95 % 0.0 in
23:48 5.9 °F 6.0 °F 1000.9 in SSW 9.7 mph 13.7 mph 95 % 0.0 in
23:53 5.8 °F 6.0 °F 1000.9 in South 7.9 mph 10.1 mph 95 % 0.0 in
23:58 5.8 °F 6.0 °F 1000.9 in SSW 9.0 mph 10.1 mph 95 % 0.0 in
Le Gheer Warneton
Courtoisie de Weather Underground - 2.5 mb

Mise a jour : 22/02/2018 04:18:11
Généré par Cumulus 1.9.4 (1099)